Showing default

APSTAR 5 (TELSTAR 18), 28364

Orbit data source: Space-Track

APSTAR 5 (TELSTAR 18), 28364 is a payload satellite owned by SS/Loral (CN) in GEO that was launched on Tue, 29 Jun 2004 UTC via a ZENIT-3SL launch vehicle from the Sea Launch (SEAL). Payload-class satellites include a variety of spacecraft equipped with specific instruments for various scientific and technological missions. These include communications satellites like Starlink; space stations such as the ISS; scientific satellites like the Hubble; Earth observation satellites from companies like Planet Labs, Umbra, and HawkEye 360; GPS; miniature CubeSats for education and research; and military/defense satellites.

Not visible in the next 10 days
Identifier
28364, 2004-024A
Orbit
GEO
Country
Flag of CNCN / PRC
Related business
Manufacturer
SS/Loral
Mission
Non-operational Commercial Communications
Bus & Motor
SSL-1300, R-4D-11-164
Mass
4,845 kg wet, ~2,000 kg dry
Launch date (UTC)
2004-06-29 (22 years ago)
Launch vehicle
ZENIT-3SL
Launch site
Sea Launch (SEAL)
Object type
Payload
Rocket body
Debris
Shape & HBR
Box + 2 Pan, 15.5 m
Radar Cross Section
40.765 m², Large (>1 m²)

Expand to show TLE details & history
Last TLE update: 10 hours ago

TLE from 10 hours ago
0 APSTAR 5 (TELSTAR 18)
1 28364U 04024A   26037.76649602 -.00000210  00000-0  00000+0 0  9994
2 28364   6.6414  71.3153 0005526 269.8056  61.6735  0.99016134 79007
Epoch: 2026-02-06T18:23Z
TLE epoch observation values (Epoch: 2026-02-06T18:23:45.256Z)
Latitude
-3.1801°
Longitude
-9.80309°
Altitude
36,131.2 km
Speed
3.063 km/s
True Right ascension
02h 52m 08s
True Declination
-3° 10' 37"
Sunlit
Object was in daylight at epoch
Visualization orbit readout
Latitude
Unknown
Longitude
Unknown
Altitude
Unknown
Speed
Unknown
Apparent Right ascension
Unknown
Apparent Declination
Unknown
Sunlit
N/A
Visualization observer readout
Local Sidereal Time
06:37:06
Azimuth
Unknown
Elevation
Unknown
Doppler factor
Unknown
Orbital elements
Apogee altitude
36,166.853 km
Perigee altitude
36,119.858 km
Semi-major axis
42,521.492 km
Eccentricity
0.00055
Inclination
6.6414°
RAAN
71.3153°
Arg. of periapsis
269.8056°
True anomaly
61.72926°
Mean anomaly
61.6735°
Eccentric anomaly
61.70138°
Mean motion
0.24753 °/min
Orbital period
1,454.36 mins
BSTAR
0
Loading maneuver chart data...
Computing Atmospheric mass density...
Loading historical data...
Loading historical data...
Loading historical data...
Loading historical data...
Loading historical data...
Loading historical data...
Loading historical data...
Other satellites on launch #24 in the year 2004 (2004-06-29 UTC)

Documentation

Showing up to 5 results
|